GW4420 Weather Reports


time (UTC)temp
F
wind
direction
speed
knots
gust
knots
rain 1hr
in
rain 24hr
in
rain mn
in
humidity
%
barometer
mb
20260902194716 80 33 1.7 2.6 0.00 0.02 0.02 94 1001.9
20260902194211 80 236 0.0 0.9 0.00 0.02 0.02 94 1001.9
20260902193707 80 119 0.0 0.0 0.00 0.02 0.02 94 1002.0
20260902193202 79 97 0.0 0.9 0.00 0.02 0.02 94 1002.2
20260902192700 79 99 0.0 0.0 0.00 0.02 0.02 93 1002.1
20260902192154 79 100 0.0 0.0 0.00 0.02 0.02 93 1002.1
20260902191648 79 98 0.0 0.0 0.00 0.02 0.02 93 1002.1
20260902191143 80 103 0.0 0.9 0.00 0.02 0.02 93 1002.2
20260902190638 80 113 0.0 0.0 0.00 0.02 0.02 93 1002.2
20260902190133 80 99 0.0 0.0 0.00 0.02 0.02 93 1002.4
20260902185624 80 98 0.0 0.0 0.00 0.02 0.02 93 1002.3
20260902185120 80 96 0.0 0.0 0.00 0.02 0.02 93 1002.3
20260902184615 80 92 0.0 0.0 0.00 0.02 0.02 93 1002.3
20260902184110 80 87 0.0 0.9 0.00 0.02 0.02 93 1002.3
20260902183606 80 98 0.0 1.7 0.00 0.02 0.02 93 1002.2
20260902183102 80 295 2.6 5.2 0.00 0.02 0.02 93 1002.3
20260902182557 80 110 0.0 1.7 0.05 0.02 0.02 93 1002.3
20260902182055 80 103 0.0 1.7 0.00 0.01 0.01 93 1002.6
20260902181550 80 15 0.9 2.6 0.00 0.01 0.01 94 1002.5
20260902181049 80 334 1.7 5.2 0.00 0.01 0.01 94 1002.7
20260902180544 80 92 1.7 3.5 0.00 0.01 0.01 94 1002.8
20260902180040 80 104 0.0 0.9 0.00 0.01 0.01 94 1002.8
20260902175539 80 141 0.9 1.7 0.00 0.01 0.01 94 1003.0
20260902175036 80 12 0.9 1.7 0.00 0.01 0.01 94 1003.0
20260902174532 80 115 0.0 1.7 0.00 0.01 0.01 94 1003.1
20260902174027 80 127 0.0 0.9 0.00 0.01 0.01 94 1003.2
20260902173527 80 98 0.0 0.0 0.00 0.01 0.01 94 1003.4
20260902173027 80 101 0.0 0.0 0.00 0.01 0.01 94 1003.4
20260902172526 80 103 0.0 0.9 0.00 0.01 0.01 94 1003.4
20260902172022 80 98 0.0 0.9 0.00 0.01 0.01 94 1003.7
20260902171517 79 95 0.0 1.7 0.00 0.01 0.01 94 1003.9
20260902171013 79 99 0.0 0.0 0.00 0.01 0.01 94 1004.0
20260902170508 79 140 0.0 0.0 0.00 0.01 0.01 94 1003.9
20260902170004 79 338 1.7 1.7 0.00 0.01 0.01 94 1003.9
20260902165458 79 305 2.6 3.5 0.00 0.01 0.01 94 1003.9
20260902164958 79 82 0.0 0.9 0.00 0.01 0.01 94 1004.0
20260902164453 79 104 0.0 0.0 0.00 0.01 0.01 94 1004.2
20260902163952 79 104 0.0 0.9 0.00 0.01 0.01 94 1004.1
20260902163447 79 50 0.0 0.9 0.07 0.01 0.01 94 1004.1
20260902162945 79 89 0.0 0.9 0.07 0.01 0.01 94 1004.1
20260902162441 78 97 0.0 0.0 0.00 0.00 0.00 94 1004.2
20260902161941 78 81 0.0 0.0 0.00 0.00 0.00 94 1004.2
20260902161436 78 107 0.0 0.9 0.00 0.00 0.00 93 1004.3
20260902160932 78 227 0.0 0.9 0.00 0.00 0.00 93 1004.4
20260902160427 78 313 0.9 0.9 0.00 0.00 0.00 93 1004.3
20260902155925 78 78 0.0 0.9 0.00 0.00 0.00 93 1004.5
20260902155420 78 285 1.7 2.6 0.00 0.00 0.00 93 1004.5
20260902154914 78 284 1.7 2.6 0.00 0.00 0.00 93 1004.6
20260902154410 78 281 1.7 3.5 0.00 0.00 0.00 93 1004.6
20260902153909 78 109 0.0 0.9 0.00 0.00 0.00 93 1004.9
20260902153408 78 46 0.9 3.5 0.00 0.00 0.00 93 1005.1
20260902152904 78 19 0.9 1.7 0.00 0.00 0.00 93 1005.1
20260902152359 78 92 0.0 1.7 0.00 0.00 0.00 93 1005.1
20260902151850 78 308 1.7 2.6 0.00 0.00 0.00 93 1005.2
20260902151345 78 307 1.7 3.5 0.00 0.00 0.00 92 1005.3
20260902150844 78 263 1.7 3.5 0.00 0.00 0.00 92 1005.3
20260902150341 78 46 1.7 6.1 0.00 0.00 0.00 92 1005.6
20260902145840 78 311 1.7 2.6 0.00 0.12 0.12 92 1005.4
20260902145336 78 288 3.5 3.5 0.00 0.12 0.12 92 1005.5
20260902144831 78 298 3.5 5.2 0.00 0.12 0.12 92 1005.7
20260902144327 78 295 2.6 3.5 0.00 0.12 0.12 92 1006.0
20260902143822 78 214 1.7 5.2 0.00 0.12 0.12 92 1006.0
20260902143322 78 313 1.7 5.2 0.00 0.12 0.12 92 1005.8
20260902142818 78 349 3.5 7.8 0.00 0.12 0.12 92 1006.2
20260902142313 78 29 1.7 3.5 0.00 0.12 0.12 92 1006.3
20260902141808 78 134 3.5 6.1 0.00 0.12 0.12 92 1006.2
20260902141304 78 278 1.7 3.5 0.00 0.12 0.12 92 1006.2
20260902140758 78 315 1.7 5.2 0.00 0.12 0.12 92 1006.4
20260902140254 78 330 0.9 2.6 0.00 0.12 0.12 92 1006.3
20260902135752 78 296 0.9 2.6 0.00 0.12 0.12 92 1006.3
20260902135249 78 253 2.6 5.2 0.00 0.12 0.12 92 1006.3
20260902134748 78 293 2.6 3.5 0.00 0.12 0.12 92 1006.4
20260902134244 78 315 5.2 7.0 0.00 0.12 0.12 92 1006.4
20260902133739 78 5 0.9 5.2 0.00 0.12 0.12 92 1006.5
20260902133238 78 329 3.5 9.6 0.00 0.12 0.12 92 1006.6
20260902132733 78 318 3.5 7.8 0.00 0.12 0.12 93 1006.6
20260902132229 78 106 0.9 3.5 0.00 0.12 0.12 93 1006.5
20260902131724 78 305 2.6 3.5 0.00 0.12 0.12 93 1006.6
20260902131220 78 5 0.9 3.5 0.00 0.12 0.12 93 1006.8
20260902130715 78 321 1.7 3.5 0.00 0.12 0.12 93 1006.7
20260902130211 78 66 1.7 5.2 0.00 0.12 0.12 92 1006.7
20260902125711 78 341 4.3 6.1 0.71 0.12 0.12 93 1006.8
20260902125207 78 9 2.6 6.1 0.71 0.12 0.12 93 1006.8
20260902124703 0 0.0 0.0 0.00 0.00 0.00 1006.9
20260902124203 0 0.0 0.0 0.00 0.00 0.00 1006.9
20260902123659 0 0.0 0.0 0.00 0.00 0.00 1006.9
20260902123155 0 0.0 0.0 0.00 0.00 0.00 1006.9
20260902122654 0 0.0 0.0 0.00 0.00 0.00 1007.0
20260902122150 0 0.0 0.0 0.00 0.00 0.00 1007.1
20260902121644 0 0.0 0.0 0.00 0.00 0.00 1006.9
20260902121138 0 0.0 0.0 0.00 0.00 0.00 1007.0
20260902120635 0 0.0 0.0 0.00 0.00 0.00 1006.9
20260902120132 0 0.0 0.0 0.00 0.00 0.00 1006.8
20260902115626 0 0.0 0.0 0.00 0.00 0.00 1007.0
20260902115122 0 0.0 0.0 0.00 0.00 0.00 1006.8
20260902114618 0 0.0 0.0 0.00 0.00 0.00 1006.8
20260902114118 0 0.0 0.0 0.00 0.00 0.00 1006.7
20260902113613 0 0.0 0.0 0.00 0.00 0.00 1006.7
20260902113108 0 0.0 0.0 0.00 0.00 0.00 1006.7
20260902112603 80 318 6.1 7.8 0.00 0.00 0.00 83 1006.9
20260902112100 80 318 6.1 7.8 0.00 0.00 0.00 83 1006.8
20260902111556 80 318 6.1 7.8 0.00 0.00 0.00 83 1006.7
20260902111051 80 318 6.1 7.8 0.00 0.00 0.00 83 1006.7
20260902110547 80 318 6.1 7.8 0.00 0.00 0.00 83 1006.7
20260902110042 80 318 6.1 7.8 0.00 0.00 0.00 83 1006.7
20260902105537 80 318 6.1 7.8 0.00 0.00 0.00 83 1006.9
20260902105037 80 318 6.1 7.8 0.00 0.00 0.00 83 1006.8
20260902104533 80 318 6.1 7.8 0.00 0.00 0.00 83 1006.6
20260902104033 80 318 6.1 7.8 0.00 0.00 0.00 83 1006.7
20260902103528 80 318 6.1 7.8 0.00 0.00 0.00 83 1006.7
20260902103024 80 319 6.1 9.6 0.00 0.00 0.00 83 1006.6
20260902102520 81 16 3.5 6.1 0.00 0.00 0.00 82 1006.9
20260902102017 81 43 2.6 5.2 0.00 0.00 0.00 81 1007.0
20260902101512 82 290 5.2 12.2 0.00 0.00 0.00 79 1007.0
20260902101010 82 346 4.3 7.0 0.00 0.00 0.00 78 1006.7
20260902100505 82 300 6.1 8.7 0.00 0.00 0.00 78 1007.0
20260902095959 82 259 5.2 9.6 0.00 0.00 0.00 78 1006.8
20260902095454 82 24 2.6 9.6 0.00 0.00 0.00 78 1006.9
20260902094953 82 349 1.7 6.1 0.00 0.00 0.00 79 1006.9
20260902094450 82 254 3.5 8.7 0.00 0.00 0.00 79 1006.7
20260902093949 82 288 7.0 7.8 0.00 0.00 0.00 79 1006.9
20260902093444 82 102 5.2 7.8 0.00 0.00 0.00 79 1006.7
20260902092943 82 34 4.3 7.8 0.00 0.00 0.00 79 1006.8
20260902092440 82 352 7.8 12.2 0.00 0.00 0.00 79 1006.8
20260902091939 82 14 7.0 8.7 0.00 0.00 0.00 79 1006.8
20260902091435 82 8 6.1 13.9 0.00 0.00 0.00 79 1006.7
20260902090931 82 349 3.5 7.0 0.00 0.00 0.00 78 1006.8
20260902090431 83 316 7.0 11.3 0.00 0.00 0.00 78 1006.9
20260902085930 83 85 3.5 9.6 0.00 0.00 0.00 77 1006.7
20260902085425 84 333 5.2 8.7 0.00 0.00 0.00 76 1007.0
20260902084920 84 356 2.6 7.8 0.00 0.00 0.00 75 1006.8
20260902084417 84 36 3.5 8.7 0.00 0.00 0.00 73 1006.9
20260902083913 85 50 4.3 7.8 0.00 0.00 0.00 71 1006.8
20260902083412 85 42 2.6 5.2 0.00 0.00 0.00 70 1006.9
20260902082907 85 344 4.3 7.0 0.00 0.00 0.00 70 1006.9
20260902082403 85 45 1.7 8.7 0.00 0.00 0.00 70 1007.0
20260902081900 85 50 5.2 7.0 0.00 0.00 0.00 70 1006.7
20260902081355 85 12 5.2 11.3 0.00 0.00 0.00 70 1006.6
20260902080850 85 67 0.9 3.5 0.00 0.00 0.00 72 1006.8
20260902080347 85 343 1.7 7.0 0.00 0.00 0.00 73 1006.7
20260902075845 85 60 2.6 7.8 0.00 0.00 0.00 73 1006.5
20260902075337 85 248 2.6 7.8 0.00 0.00 0.00 74 1006.7
20260902074832 86 333 8.7 15.6 0.00 0.00 0.00 72 1006.7
20260902074327 86 201 0.9 7.8 0.00 0.00 0.00 73 1006.6
20260902073822 86 8 1.7 3.5 0.00 0.00 0.00 73 1006.5
20260902073319 86 12 3.5 7.8 0.00 0.00 0.00 72 1006.5
20260902072814 86 312 1.7 9.6 0.00 0.00 0.00 72 1006.7
20260902072310 86 48 1.7 1.7 0.00 0.00 0.00 72 1006.7
20260902071805 86 67 5.2 8.7 0.00 0.00 0.00 70 1007.0
20260902071255 86 358 7.8 9.6 0.00 0.00 0.00 70 1006.6
20260902070751 87 19 2.6 8.7 0.00 0.00 0.00 70 1006.3
20260902070251 86 36 4.3 7.0 0.00 0.00 0.00 72 1006.6
20260902065749 86 349 4.3 8.7 0.00 0.00 0.00 72 1006.6
20260902065244 86 3 3.5 7.0 0.00 0.00 0.00 74 1006.5
20260902064740 86 353 3.5 6.1 0.00 0.00 0.00 75 1006.6
20260902064236 85 356 1.7 3.5 0.00 0.00 0.00 79 1006.7
20260902063732 84 329 6.1 8.7 0.00 0.00 0.00 81 1007.0
20260902063231 85 62 1.7 2.6 0.00 0.00 0.00 80 1006.9
20260902062726 89 359 7.8 11.3 0.00 0.00 0.00 73 1007.0
20260902062221 88 23 1.7 6.1 0.00 0.00 0.00 74 1006.8
20260902061720 88 50 2.6 9.6 0.00 0.00 0.00 73 1006.7
20260902061215 88 10 2.6 7.8 0.00 0.00 0.00 74 1006.8
20260902060712 87 50 1.7 12.2 0.00 0.00 0.00 75 1006.8
20260902060208 87 0 1.7 6.1 0.00 0.00 0.00 75 1006.9
20260902055703 87 92 1.7 5.2 0.00 0.00 0.00 74 1007.0
20260902055159 87 38 2.6 7.8 0.00 0.00 0.00 75 1007.0
20260902054654 86 5 1.7 11.3 0.00 0.00 0.00 77 1007.0
20260902054149 86 284 7.8 13.9 0.00 0.00 0.00 76 1007.4
20260902053644 86 340 1.7 7.8 0.00 0.00 0.00 76 1007.0
20260902053139 87 343 5.2 9.6 0.00 0.00 0.00 74 1007.1
20260902052638 88 78 1.7 3.5 0.00 0.00 0.00 73 1006.8
20260902052134 87 57 4.3 7.8 0.00 0.00 0.00 75 1006.9
20260902051633 87 49 4.3 7.8 0.00 0.00 0.00 76 1007.0
20260902051127 87 311 6.1 9.6 0.00 0.00 0.00 75 1007.0
20260902050621 87 34 4.3 12.2 0.00 0.00 0.00 74 1007.2
20260902050116 87 43 3.5 9.6 0.00 0.00 0.00 75 1007.0
20260902045612 86 12 2.6 9.6 0.00 0.00 0.00 77 1007.4
20260902045108 86 346 1.7 6.1 0.00 0.00 0.00 78 1007.3
20260902044602 86 316 5.2 7.8 0.00 0.00 0.00 77 1007.3
20260902044058 87 21 3.5 5.2 0.00 0.00 0.00 76 1007.3
20260902043548 87 4 7.0 8.7 0.00 0.00 0.00 75 1007.3
20260902043043 87 154 4.3 6.1 0.00 0.00 0.00 74 1007.6
20260902042542 88 12 6.1 11.3 0.00 0.00 0.00 72 1007.6
20260902042038 87 74 5.2 7.8 0.00 0.00 0.00 74 1007.6
20260902041537 88 16 8.7 13.9 0.00 0.00 0.00 73 1007.8
20260902041032 88 9 6.1 7.0 0.00 0.00 0.00 73 1007.6
20260902040527 88 27 2.6 11.3 0.00 0.00 0.00 73 1007.6
20260902040026 87 4 6.1 7.8 0.00 0.00 0.00 74 1007.7
20260902035520 87 30 6.1 16.5 0.00 0.00 0.00 73 1007.8
20260902035016 87 37 5.2 8.7 0.00 0.00 0.00 74 1007.8
20260902034514 87 13 4.3 12.2 0.00 0.00 0.00 77 1007.9
20260902034014 86 322 4.3 7.0 0.00 0.00 0.00 77 1008.0
20260902033514 86 241 3.5 9.6 0.00 0.00 0.00 78 1007.8
20260902033013 86 65 2.6 6.1 0.00 0.00 0.00 79 1008.2
20260902032508 86 334 2.6 12.2 0.00 0.00 0.00 79 1008.4
20260902032003 86 78 1.7 12.2 0.00 0.00 0.00 79 1008.3
20260902031457 86 61 2.6 7.0 0.00 0.00 0.00 78 1008.1
20260902030954 86 277 3.5 6.1 0.00 0.00 0.00 78 1008.3
20260902030453 86 332 5.2 7.0 0.00 0.00 0.00 78 1008.3
20260902025951 86 60 4.3 5.2 0.00 0.00 0.00 79 1008.5
20260902025448 85 8 5.2 12.2 0.00 0.00 0.00 79 1008.4
20260902024943 85 40 1.7 11.3 0.00 0.00 0.00 79 1008.4
20260902024438 86 28 3.5 5.2 0.00 0.00 0.00 79 1008.5
20260902023933 86 1 4.3 6.1 0.00 0.00 0.00 78 1008.5
20260902023429 86 138 5.2 8.7 0.00 0.00 0.00 78 1008.5
20260902022928 87 352 1.7 7.0 0.00 0.00 0.00 78 1008.4
20260902022423 87 327 5.2 7.8 0.00 0.00 0.00 76 1008.3
20260902021919 87 315 2.6 5.2 0.00 0.00 0.00 77 1008.6
20260902021419 87 340 3.5 9.6 0.00 0.00 0.00 76 1008.3
20260902020914 87 323 4.3 9.6 0.00 0.00 0.00 75 1008.5
20260902020411 88 359 7.0 12.2 0.00 0.00 0.00 75 1008.8
20260902015906 88 24 6.1 13.0 0.00 0.00 0.00 74 1008.5
20260902015401 88 115 1.7 5.2 0.00 0.00 0.00 76 1008.4
20260902014856 88 352 7.0 12.2 0.00 0.00 0.00 75 1008.7
20260902014353 88 58 5.2 9.6 0.00 0.00 0.00 75 1008.8
20260902013852 87 38 0.9 6.1 0.00 0.00 0.00 77 1008.4
20260902013348 87 331 3.5 7.8 0.00 0.00 0.00 78 1008.6
20260902012843 86 134 3.5 8.7 0.00 0.00 0.00 79 1008.7
20260902012339 86 339 7.8 9.6 0.00 0.00 0.00 77 1008.7
20260902011835 86 34 6.1 15.6 0.00 0.00 0.00 78 1009.0
20260902011329 86 35 3.5 9.6 0.00 0.00 0.00 78 1008.8
20260902010828 86 344 3.5 13.9 0.00 0.00 0.00 79 1008.7
20260902010323 86 310 7.0 13.9 0.00 0.00 0.00 79 1008.9
20260902005822 86 54 3.5 9.6 0.00 0.00 0.00 79 1008.9
20260902005317 86 349 3.5 8.7 0.00 0.00 0.00 79 1009.0
20260902004813 87 57 4.3 9.6 0.00 0.00 0.00 78 1008.9
20260902004308 87 30 1.7 5.2 0.00 0.00 0.00 79 1008.9
20260902003802 86 354 3.5 8.7 0.00 0.00 0.00 78 1008.7
20260902003258 86 343 9.6 12.2 0.00 0.00 0.00 79 1008.6
20260902002754 86 22 5.2 11.3 0.00 0.00 0.00 79 1008.6
20260902002253 86 34 6.1 8.7 0.00 0.00 0.00 79 1008.6
20260902001749 86 38 1.7 2.6 0.00 0.00 0.00 79 1008.6
20260902001243 86 35 5.2 7.0 0.00 0.00 0.00 80 1008.6
20260902000737 85 58 2.6 13.0 0.00 0.00 0.00 80 1008.5
20260902000233 86 36 7.8 8.7 0.00 0.00 0.00 80 1008.5
20260901235727 85 294 13.0 20.0 0.00 0.00 0.00 80 1008.6
20260901235223 85 323 4.3 8.7 0.00 0.00 0.00 82 1008.5
20260901234722 85 67 7.0 8.7 0.00 0.00 0.00 81 1008.7
20260901234221 86 15 4.3 8.7 0.00 0.00 0.00 80 1008.6
20260901233716 85 55 6.1 7.0 0.00 0.00 0.00 80 1008.7
20260901233213 85 19 5.2 7.0 0.00 0.00 0.00 80 1008.8
20260901232712 85 331 5.2 7.8 0.00 0.00 0.00 81 1008.6
20260901232208 85 86 0.9 6.1 0.00 0.00 0.00 82 1008.7
20260901231704 85 17 2.6 7.8 0.00 0.00 0.00 82 1008.4
20260901231200 85 54 2.6 11.3 0.00 0.00 0.00 82 1008.5
20260901230655 85 27 6.1 8.7 0.00 0.00 0.00 81 1008.4
20260901230150 85 56 2.6 11.3 0.00 0.00 0.00 81 1008.3
20260901225645 85 26 3.5 7.8 0.00 0.00 0.00 82 1008.5
20260901225145 84 26 0.0 2.6 0.00 0.00 0.00 83 1008.4
20260901224641 84 70 2.6 6.1 0.00 0.00 0.00 83 1008.3
20260901224137 84 48 1.7 11.3 0.00 0.00 0.00 84 1008.0
20260901223632 83 3 3.5 9.6 0.00 0.00 0.00 84 1008.0
20260901223127 83 338 3.5 5.2 0.00 0.00 0.00 86 1008.1
20260901222623 83 80 1.7 6.1 0.00 0.00 0.00 86 1007.9
20260901222119 82 48 1.7 7.0 0.00 0.00 0.00 86 1008.0
20260901221615 82 330 4.3 9.6 0.00 0.00 0.00 87 1007.9
20260901221111 82 340 3.5 7.8 0.00 0.00 0.00 87 1007.9
20260901220610 82 40 2.6 12.2 0.00 0.00 0.00 88 1008.0
20260901220110 81 37 3.5 5.2 0.00 0.00 0.00 88 1008.1
20260901215608 82 28 3.5 3.5 0.00 0.00 0.00 87 1007.8
20260901215107 82 83 1.7 3.5 0.00 0.00 0.00 86 1008.1
20260901214606 82 14 6.1 7.8 0.00 0.00 0.00 86 1008.1
20260901214101 82 41 3.5 6.1 0.00 0.00 0.00 86 1008.1
20260901213601 82 337 2.6 7.0 0.00 0.00 0.00 86 1008.3
20260901213055 82 42 3.5 7.0 0.00 0.00 0.00 86 1008.2
20260901212549 82 93 1.7 3.5 0.00 0.00 0.00 86 1008.2
20260901212046 82 51 3.5 6.1 0.00 0.00 0.00 86 1008.3
20260901211541 82 41 5.2 8.7 0.00 0.00 0.00 86 1008.2
20260901211037 82 25 3.5 8.7 0.00 0.00 0.00 86 1008.3
20260901210533 82 7 3.5 6.1 0.00 0.00 0.00 86 1008.1
20260901210029 82 18 2.6 6.1 0.00 0.00 0.00 86 1008.1
20260901205524 82 347 0.9 7.0 0.00 0.00 0.00 86 1007.8
20260901205023 82 341 4.3 8.7 0.00 0.00 0.00 86 1008.0
20260901204520 82 35 3.5 5.2 0.00 0.00 0.00 86 1008.0
20260901204014 82 44 1.7 2.6 0.00 0.00 0.00 85 1007.9
20260901203510 82 27 7.0 13.0 0.00 0.00 0.00 85 1008.0
20260901203005 82 10 4.3 6.1 0.00 0.00 0.00 85 1007.9
20260901202500 82 345 1.7 6.1 0.00 0.00 0.00 85 1007.9
20260901201955 82 28 2.6 3.5 0.00 0.00 0.00 85 1007.8
20260901201450 82 356 3.5 8.7 0.00 0.00 0.00 85 1007.9
20260901200950 82 46 1.7 7.8 0.00 0.00 0.00 85 1007.9
20260901200444 82 15 1.7 7.0 0.00 0.00 0.00 85 1007.7
20260901195943 82 36 5.2 7.8 0.00 0.00 0.00 85 1008.1
20260901195442 82 52 2.6 7.0 0.00 0.00 0.00 86 1008.1